TimeEDT,TemperatureF,Dew PointF,Humidity,Sea Level PressureIn,VisibilityMPH,Wind Direction,Wind SpeedMPH,Gust SpeedMPH,PrecipitationIn,Events,Conditions,WindDirDegrees,DateUTC
12:54 AM,71.1,68.0,90,30.09,9.0,SE,4.6,-,0.01,Rain,Light Rain,130,2013-07-09 04:54:00
1:54 AM,71.1,68.0,90,30.06,7.0,SSE,3.5,-,0.00,,Overcast,160,2013-07-09 05:54:00
2:20 AM,69.8,69.8,100,30.08,6.0,SSE,5.8,-,0.02,Rain-Thunderstorm,Light Rain,160,2013-07-09 06:20:00
2:35 AM,71.6,69.8,94,30.08,6.0,Variable,3.5,-,0.03,Rain-Thunderstorm,Light Thunderstorms and Rain,0,2013-07-09 06:35:00
2:54 AM,71.1,69.1,93,30.07,4.0,Calm,Calm,-,0.08,Rain-Thunderstorm,Light Thunderstorms and Rain,0,2013-07-09 06:54:00
3:20 AM,71.6,69.8,94,30.07,3.0,SSE,5.8,-,0.08,Rain-Thunderstorm,Rain,160,2013-07-09 07:20:00
3:54 AM,72.0,70.0,93,30.02,5.0,South,8.1,-,0.14,Rain-Thunderstorm,Light Rain,190,2013-07-09 07:54:00
4:03 AM,71.6,69.8,94,30.04,6.0,SSW,8.1,-,0.01,Rain,Light Rain,200,2013-07-09 08:03:00
4:54 AM,73.0,70.0,90,30.03,9.0,Variable,4.6,-,0.01,,Clear,0,2013-07-09 08:54:00
5:20 AM,71.6,69.8,94,30.05,8.0,Calm,Calm,-,N/A,Thunderstorm,Scattered Clouds,0,2013-07-09 09:20:00
5:39 AM,71.6,69.8,94,30.06,8.0,Calm,Calm,-,N/A,,Mostly Cloudy,0,2013-07-09 09:39:00
5:50 AM,71.6,69.8,94,30.06,7.0,North,6.9,-,N/A,Thunderstorm,Overcast,360,2013-07-09 09:50:00
5:54 AM,72.0,70.0,93,30.05,6.0,North,6.9,-,N/A,Thunderstorm,Overcast,350,2013-07-09 09:54:00
6:40 AM,71.6,69.8,94,30.07,2.5,SW,4.6,-,0.06,Rain,Rain,230,2013-07-09 10:40:00
6:54 AM,72.0,70.0,93,30.05,5.0,SW,3.5,-,0.07,Rain-Thunderstorm,Light Thunderstorms and Rain,220,2013-07-09 10:54:00
7:03 AM,71.6,69.8,94,30.07,5.0,West,3.5,-,0.00,Rain,Light Rain,260,2013-07-09 11:03:00
7:54 AM,73.0,70.0,90,30.04,8.0,WSW,4.6,-,0.01,,Clear,250,2013-07-09 11:54:00
8:54 AM,75.0,71.1,87,30.04,10.0,WSW,10.4,-,N/A,,Mostly Cloudy,250,2013-07-09 12:54:00
9:54 AM,78.1,72.0,81,30.04,10.0,WSW,10.4,20.7,N/A,,Mostly Cloudy,250,2013-07-09 13:54:00
10:17 AM,80.6,73.4,79,30.06,10.0,WSW,10.4,-,N/A,,Scattered Clouds,250,2013-07-09 14:17:00
10:54 AM,82.0,73.0,74,30.04,10.0,West,10.4,-,N/A,,Mostly Cloudy,260,2013-07-09 14:54:00
11:54 AM,82.0,72.0,71,30.04,10.0,WSW,10.4,-,N/A,,Overcast,240,2013-07-09 15:54:00
12:11 PM,84.2,73.4,70,30.06,10.0,West,8.1,-,N/A,,Mostly Cloudy,260,2013-07-09 16:11:00
12:54 PM,87.1,73.9,65,30.04,10.0,West,11.5,-,N/A,,Scattered Clouds,260,2013-07-09 16:54:00
1:54 PM,84.9,75.0,72,30.03,9.0,SW,5.8,-,0.00,Rain,Light Rain,220,2013-07-09 17:54:00
2:18 PM,80.6,75.2,84,30.04,1.8,South,10.4,-,0.08,Rain,Heavy Rain,190,2013-07-09 18:18:00
2:26 PM,82.4,75.2,79,30.03,4.0,SSE,4.6,-,0.08,Rain,Light Rain,160,2013-07-09 18:26:00
2:54 PM,82.0,75.0,79,30.00,10.0,SW,6.9,-,0.10,,Mostly Cloudy,220,2013-07-09 18:54:00
3:01 PM,80.6,73.4,79,30.02,10.0,SW,5.8,-,N/A,Thunderstorm,Mostly Cloudy,230,2013-07-09 19:01:00
3:52 PM,80.6,73.4,79,30.04,1.8,WSW,9.2,-,0.13,Rain-Thunderstorm,Heavy Thunderstorms and Rain,240,2013-07-09 19:52:00
3:54 PM,80.1,73.9,81,30.05,1.2,West,27.6,36.8,0.15,Rain-Thunderstorm,Heavy Thunderstorms and Rain,270,2013-07-09 19:54:00
4:01 PM,73.4,69.8,88,30.07,0.5,WNW,20.7,36.8,0.27,Fog-Rain-Thunderstorm,Heavy Thunderstorms and Rain,300,2013-07-09 20:01:00
4:03 PM,73.4,69.8,88,30.05,0.2,NW,20.7,36.8,0.40,Fog-Rain-Thunderstorm,Heavy Thunderstorms and Rain,320,2013-07-09 20:03:00
4:11 PM,71.6,66.2,83,30.03,0.5,NNW,8.1,29.9,0.62,Fog-Rain-Thunderstorm,Heavy Thunderstorms and Rain,340,2013-07-09 20:11:00
4:22 PM,71.6,68.0,88,30.02,2.0,Calm,Calm,-,0.70,Rain-Thunderstorm,Thunderstorms and Rain,0,2013-07-09 20:22:00
4:26 PM,71.6,68.0,88,30.01,3.0,Calm,Calm,-,0.71,Rain-Thunderstorm,Light Thunderstorms and Rain,0,2013-07-09 20:26:00
4:54 PM,73.9,71.1,91,29.99,10.0,WSW,6.9,-,0.71,Thunderstorm,Thunderstorm,250,2013-07-09 20:54:00
5:24 PM,73.4,69.8,88,30.01,10.0,WSW,11.5,23.0,N/A,,Partly Cloudy,240,2013-07-09 21:24:00
5:54 PM,73.9,71.1,91,30.02,10.0,SW,5.8,-,0.00,Rain,Light Rain,230,2013-07-09 21:54:00
6:54 PM,73.0,69.1,87,30.00,10.0,SSE,3.5,-,0.00,,Partly Cloudy,160,2013-07-09 22:54:00
7:54 PM,72.0,70.0,93,29.99,10.0,SW,3.5,-,0.00,Rain,Light Rain,230,2013-07-09 23:54:00
8:54 PM,72.0,70.0,93,30.01,9.0,Calm,Calm,-,0.02,Rain,Light Rain,0,2013-07-10 00:54:00
9:02 PM,71.6,69.8,94,30.03,8.0,Calm,Calm,-,0.01,Rain-Thunderstorm,Light Thunderstorms and Rain,0,2013-07-10 01:02:00
9:17 PM,71.6,71.6,100,30.04,7.0,Calm,Calm,-,0.03,Rain,Light Rain,0,2013-07-10 01:17:00
9:54 PM,72.0,70.0,93,30.03,7.0,Calm,Calm,-,0.04,Rain,Light Rain,0,2013-07-10 01:54:00
10:02 PM,71.6,69.8,94,30.05,6.0,Calm,Calm,-,0.01,Rain-Thunderstorm,Light Rain,0,2013-07-10 02:02:00
10:27 PM,71.6,69.8,94,30.04,7.0,ENE,3.5,-,0.02,,Mostly Cloudy,60,2013-07-10 02:27:00
10:54 PM,72.0,70.0,93,30.03,6.0,Calm,Calm,-,0.02,,Scattered Clouds,0,2013-07-10 02:54:00
11:02 PM,71.6,69.8,94,30.04,6.0,Calm,Calm,-,N/A,,Mostly Cloudy,0,2013-07-10 03:02:00
11:33 PM,71.6,69.8,94,30.03,7.0,SSE,3.5,-,N/A,,Scattered Clouds,150,2013-07-10 03:33:00
11:54 PM,72.0,70.0,93,30.01,7.0,SSE,3.5,-,N/A,,Partly Cloudy,150,2013-07-10 03:54:00